Regional Weather Roundup
Issued by NWS

Home | Current Version | Previous Version | Text Only | Print | Product List | Glossary On
Versions: 1 2 3 4 5 6 7 8 9 10 11 12 13 14 15 16 17 18 19 20 21 22 23 24 25 26 27 28 29 30 31 32 33 34 35 36 37 38 39 40 41 42 43 44 45 46 47 48 49 50
000
ASUS43 KBIS 211110
RWRND

NORTH DAKOTA REGIONAL WEATHER ROUNDUP
NATIONAL WEATHER SERVICE BISMARCK ND
600 AM CDT MON AUG 21 2017

NOTE: "FAIR" INDICATES FEW OR NO CLOUDS BELOW 12,000 FEET WITH NO
SIGNIFICANT WEATHER AND/OR OBSTRUCTIONS TO VISIBILITY.


NDZ001>003-009>011-017-211200-
NORTHWEST NORTH DAKOTA

CITY           SKY/WX    TMP DP  RH WIND       PRES   REMARKS
WILLISTON      CLOUDY    58  48  69 S5        29.94F
MINOT          PTCLDY    57  50  77 NE5       29.96F
MINOT AFB      CLOUDY    57  49  74 SE7       29.95F
$$

NDZ018>021-031>035-040>046-211200-
SOUTHWEST NORTH DAKOTA

CITY           SKY/WX    TMP DP  RH WIND       PRES   REMARKS
BISMARCK       MOCLDY    58  53  84 SE9       29.96F
DICKINSON      CLEAR     50  46  86 S8        29.98R
GARRISON         N/A     61  54  77 S13G21    29.93F
HETTINGER ARPT MOCLDY    54  48  80 CALM      30.02R
$$

NDZ004>008-012>016-024-026-027-054-211200-
NORTHEAST NORTH DAKOTA

CITY           SKY/WX    TMP DP  RH WIND       PRES   REMARKS
GRAND FORKS    CLOUDY    55  53  93 CALM      30.00R
GRND FRKS AFB  CLOUDY    53  51  91 NW6       30.02R
DEVILS LAKE    LGT RAIN  60  54  80 SW5       30.02R
$$

NDZ022-023-025-028>030-036>039-047>053-211200-
SOUTHEAST NORTH DAKOTA

CITY           SKY/WX    TMP DP  RH WIND       PRES   REMARKS
FARGO          CLOUDY    60  57  89 CALM      30.02R
JAMESTOWN      CLOUDY    57  54  89 CALM      29.99S
$$





USA.gov is the U.S. government's official web portal to all federal, state and local government web resources and services.